Погода в Бекилли

Турция     38°13′36″N   29°25′18″E
темп.,
°C
ветер,
м/с
пор.,
м/с
влажн.,
%
обл.,
%
осадки,
мм/ч
давл.,
гПа
погр.,
м
9 марта, вт
вт900:00+3ссз0150100 0.0 101722
03:00+3ссв1150100 0.0 101722
06:00+3св1153100 0.0 101722
09:00+5в223899 0.0 1018124
12:00+9юв122990 0.0 1016654
15:00+12ююз122495 0.0 10151282
18:00+10ююз5548100 0.0 1015529
21:00+8в127399 0.0 101624
10 марта, ср
ср1000:00+6вюв228266 0.0 101723
03:00+5вюв228467 0.0 101622
06:00+4вюв228299 0.0 101522
09:00+7вюв226799 0.0 1015107
12:00+12юв224934 0.0 1013672
15:00+14з233917 0.0 10111848
18:00+14зсз444288 0.0 10101745
21:00+10сз336261 0.0 101245
11 марта, чт
чт1100:00+7сз11750 0.0 101222
03:00+6зюз118010 0.0 101222
06:00+6зсз118442 0.0 101122
09:00+9ююз117053 0.0 1011184
12:00+12зюз335636 0.0 10101242
15:00+13з784756 0.1 10081626
18:00+8зсз7986100 2.9 1009753
21:00+5св5683100 10.4 1012532
12 марта, пт
пт1200:00+2ссв61168100 0.0 1016761
03:000с4107153 0.0 1020665
06:00−2ссв38710 0.0 1022409
09:00−1всв24560 0.0 1024399
12:00+5всв45330 0.0 1023914
15:00+7св22290 0.0 1021979
18:00+8ссв22290 0.0 1021851
21:00+4всв33490 0.0 102252
13 марта, сб
сб1300:00+3в23540 0.0 102226
03:00+2вюв22530 0.0 102222
06:00+1вюв22530 0.0 102122
09:00+5вюв224116 0.0 1021104
12:00+10юв1231100 0.0 1019436
15:00+14з242297 0.0 10171014
18:00+13зсз462997 0.0 1017835
21:00+9сз115298 0.0 101722